Location: Park Creek Village Mobile Home Park
(38.2885°N, 122.4714°W)
Time: 01:32:05
(UTC+00:00)

Cosmos 304 Rocket - Pass Details

Date: 14 December 2019
Orbit: 679 x 688 km, 74.0° (Epoch: 27 January)

Event Time Altitude Azimuth Distance (km) Brightness Sun altitude
Rises 14:34:21 0° 216° (SW) 3,021 7.0 -8.7°
Reaches altitude 10° 14:36:45 10° 223° (SW) 2,110 6.1 -8.2°
Maximum altitude 14:41:12 40° 293° (WNW) 1,005 4.2 -7.4°
Drops below altitude 10° 14:45:42 10° 3° (N) 2,127 6.1 -6.6°
Sets 14:48:09 0° 11° (N) 3,047 7.0 -6.2°
